Flag for Monaco Weather past 2 weeks in Monaco, Monaco

Now
79 °F

Passing clouds.


Feels Like: 81 °F
Forecast: 67 / 89 °F
Wind: 7 mph from Northwest

Location: Nice Airport

Current Time: Jul 7, 2015 at 9:00:04 AM

Latest Report: Jul 7, 2015 at 8:00 AM


Visibility: N/A

Pressure: 30.04 "Hg

Humidity: 70%

Dew point: 68 °F

Location of MonacoLocation

Historic Weather in Monaco — Graph

°F

Monaco temperature yesterday

Maximum temperature yesterday: 84 °F (at 12:00 PM)
Minimum temperature yesterday: 75 °F (at 4:00 AM)
Average temperature yesterday: 81 °F

Past Weeks' High & Low Weather Summary

 TemperatureHumidityPressure
High88 °F (Jun 23, 6:00 PM)88% (Jun 23, 10:00 PM)30.24 "Hg (Jun 23, 10:00 PM)
Low66 °F (Jun 23, 6:30 AM)33% (Jun 23, 6:00 PM)29.65 "Hg (Jun 23, 2:00 PM)
Average77 °F66%30.06 "Hg
* Reported Jun 22 7:00 AM — Jul 7 7:30 AM, Monaco, Weather by CustomWeather, © 2015

Note: Actual official high and low records may vary slightly from our data, if they occured in-between our weather recording intervals... More about our weather records

Advertising

Monaco weather history for previous 24 hours

 ConditionsComfort  
Time TempWeatherWind HumidityBarometerVisibility
7:30 AM
Tue, Jul 7
77 °FPassing clouds.7 mph74%30.04 "HgN/A
7:00 AM77 °FPassing clouds.8 mph74%30.04 "HgN/A
6:30 AM77 °FPassing clouds.7 mph74%30.04 "HgN/A
6:00 AM77 °FPassing clouds.6 mph74%30.04 "HgN/A
5:30 AM77 °FPassing clouds.7 mph74%30.04 "HgN/A
5:00 AM77 °FPassing clouds.5 mph74%30.04 "HgN/A
4:00 AM77 °FClear.3 mph74%30.04 "Hg10 mi
3:30 AM77 °FClear.7 mph79%30.04 "Hg10 mi
3:00 AM77 °FClear.6 mph79%30.04 "Hg10 mi
2:30 AM77 °FClear.6 mph79%30.04 "Hg10 mi
2:00 AM79 °FPassing clouds.3 mph74%30.04 "HgN/A
1:00 AM79 °FClear.2 mph84%30.07 "Hg10 mi
12:30 AM79 °FClear.1 mph84%30.07 "Hg10 mi
12:00 AM79 °FClear.No wind79%30.07 "Hg10 mi
11:00 PM
Mon, Jul 6
79 °FClear.No wind79%30.07 "Hg10 mi
10:30 PM79 °FClear.No wind79%30.04 "Hg10 mi
10:00 PM79 °FSunny.1 mph84%30.04 "Hg10 mi
9:30 PM81 °FSunny.2 mph79%30.04 "Hg10 mi
9:00 PM81 °FSunny.2 mph79%30.04 "Hg10 mi
8:30 PM81 °FSunny.2 mph79%30.04 "Hg10 mi
8:00 PM82 °FPartly sunny.3 mph74%30.04 "HgN/A
7:30 PM82 °FScattered clouds.3 mph74%30.04 "HgN/A
7:00 PM82 °FScattered clouds.3 mph74%30.04 "HgN/A
6:30 PM82 °FScattered clouds.3 mph74%30.04 "HgN/A
6:00 PM82 °FScattered clouds.3 mph74%30.04 "HgN/A
5:30 PM84 °FScattered clouds.5 mph70%30.04 "HgN/A
5:00 PM84 °FPartly sunny.5 mph70%30.07 "HgN/A
4:30 PM84 °FPartly sunny.6 mph70%30.07 "HgN/A
4:00 PM84 °FPartly sunny.6 mph70%30.07 "HgN/A
3:30 PM84 °FPartly sunny.6 mph74%30.07 "HgN/A
3:00 PM84 °FPartly sunny.7 mph70%30.07 "HgN/A
2:30 PM82 °FPartly sunny.8 mph74%30.07 "HgN/A
2:00 PM84 °FPartly sunny.8 mph74%30.07 "HgN/A
1:30 PM84 °FScattered clouds.8 mph74%30.07 "HgN/A
1:00 PM84 °FScattered clouds.7 mph70%30.07 "HgN/A
12:30 PM82 °FScattered clouds.6 mph74%30.09 "HgN/A
12:00 PM84 °FScattered clouds.5 mph70%30.09 "HgN/A
11:30 AM82 °FScattered clouds.3 mph74%30.09 "HgN/A
11:00 AM82 °FScattered clouds.5 mph74%30.09 "HgN/A
10:30 AM82 °FSunny.5 mph70%30.09 "Hg10 mi
10:00 AM82 °FSunny.3 mph66%30.09 "Hg10 mi
9:30 AM82 °FSunny.3 mph70%30.09 "Hg10 mi
9:00 AM82 °FSunny.3 mph70%30.07 "Hg10 mi
Weather by CustomWeather, © 2015

See weather overviewHow to use our weather pages